Date String (YYYY-MM-DD hh:mm:ss) UTC,Instrument flags,Ambient pressure (hPa),Sample flow (lpm),Bypass flow (lpm),Sample temperature (°C),Ambient temperature (°C),ASC tube jacket temperature (°C),LED temperature (°C),Box temperature (°C),Sample RH (%),Span deviation,Mass concentration (μg/m³),Mass concentration (μg/m³),Mass concentration (μg/m³)
DateTimeUTC,F1_M11,P_M11,Q1_M11,Q2_M11,T1_M11,T2_M11,T3_M11,T4_M11,T5_M11,U1_M11,ZSPAN_M11,X2_M11,X0_M11,X1_M11
2022-06-03 12:00:00,,0825.3,5.01,0.00,29.1,28.0,00.0,38.0,31.0,23.6,-000.1,0008.43,0015.95,0007.85
2022-06-03 12:01:00,,0825.2,5.00,0.00,29.1,28.0,00.0,38.0,30.9,23.5,-000.1,0008.40,0015.47,0007.83
2022-06-03 12:02:00,,0825.2,4.99,0.00,29.1,28.0,00.0,38.0,30.9,23.4,0000.0,0008.39,0014.88,0007.80
2022-06-03 12:03:00,,0825.2,5.00,0.00,29.1,28.0,00.0,38.0,30.9,23.6,0000.0,0008.39,0015.07,0007.78
2022-06-03 12:04:00,,0825.2,5.00,0.00,29.1,28.0,00.0,38.0,31.0,23.7,0000.0,0008.44,0015.61,0007.81
2022-06-03 12:05:00,,0825.2,5.01,0.00,29.1,28.0,00.0,38.0,31.0,23.8,0000.0,0008.51,0015.07,0007.85
2022-06-03 12:06:00,,0825.2,5.00,0.00,29.1,28.0,00.0,38.0,31.0,23.9,0000.0,0008.53,0015.00,0007.89
2022-06-03 12:07:00,,0825.2,4.98,0.00,29.1,28.0,00.0,38.0,31.0,23.9,0000.0,0008.62,0015.40,0007.96
2022-06-03 12:08:00,,0825.2,5.01,0.00,29.1,28.0,00.0,38.0,31.0,24.0,0000.0,0008.68,0015.99,0008.01
2022-06-03 12:09:00,,0825.2,5.01,0.00,29.1,28.0,00.0,38.0,31.0,24.0,0000.4,0008.73,0015.88,0008.10
2022-06-03 12:10:00,,0825.2,5.00,0.00,29.1,28.0,00.0,38.0,31.0,24.0,0001.2,0008.80,0015.22,0008.17
2022-06-03 12:11:00,,0825.2,4.99,0.00,29.1,28.0,00.0,38.0,31.0,24.0,0001.0,0008.87,0015.17,0008.24
2022-06-03 12:12:00,,0825.2,5.00,0.00,29.1,28.0,00.0,38.0,31.0,24.0,0000.2,0008.98,0015.35,0008.32
2022-06-03 12:13:00,,0825.2,5.01,0.00,29.1,28.0,00.0,38.0,31.0,23.9,0000.0,0009.06,0016.00,0008.41
2022-06-03 12:14:00,,0825.2,5.01,0.00,29.1,28.0,00.0,38.0,31.0,24.0,0000.0,0009.11,0017.00,0008.45
2022-06-03 12:15:00,,0825.2,5.00,0.00,29.1,28.0,00.0,38.0,31.0,24.0,0000.0,0009.09,0016.63,0008.46
2022-06-03 12:16:00,,0825.2,5.00,0.00,29.1,28.1,00.0,38.0,31.0,24.0,0000.0,0009.09,0016.68,0008.47
2022-06-03 12:17:00,,0825.2,4.99,0.00,29.1,28.1,00.0,38.0,31.0,24.0,-000.1,0009.08,0016.89,0008.46
2022-06-03 12:18:00,,0825.2,5.00,0.00,29.1,28.0,00.0,38.0,31.0,24.0,0000.0,0009.04,0016.37,0008.45
2022-06-03 12:19:00,,0825.2,5.00,0.00,29.1,28.0,00.0,38.0,31.0,23.9,-000.2,0009.03,0016.49,0008.45
2022-06-03 12:20:00,,0825.2,5.00,0.00,29.1,28.0,00.0,38.0,31.0,23.9,0000.0,0009.04,0016.54,0008.46
2022-06-03 12:21:00,,0825.2,5.00,0.00,29.1,28.0,00.0,38.0,31.0,23.9,0000.0,0009.05,0016.49,0008.46
2022-06-03 12:22:00,,0825.2,5.00,0.00,29.1,28.0,00.0,38.0,31.0,23.8,0000.0,0009.04,0015.83,0008.44
2022-06-03 12:23:00,,0825.1,5.00,0.00,29.1,28.0,00.0,38.0,31.0,23.8,0000.0,0009.05,0015.78,0008.42
2022-06-03 12:24:00,,0825.1,4.99,0.00,29.1,28.0,00.0,38.0,31.0,23.8,0000.0,0009.07,0015.31,0008.41
2022-06-03 12:25:00,,0825.2,5.00,0.00,29.1,28.0,00.0,38.0,31.0,23.8,0000.0,0009.06,0014.11,0008.42
2022-06-03 12:26:00,,0825.1,5.00,0.00,29.1,28.0,00.0,38.0,31.0,23.9,0000.0,0009.08,0013.91,0008.44
2022-06-03 12:27:00,,0825.1,5.01,0.00,29.1,28.0,00.0,38.0,31.0,23.9,-000.1,0009.10,0015.17,0008.44
2022-06-03 12:28:00,,0825.1,5.00,0.00,29.1,28.1,00.0,38.0,31.0,23.9,-000.0,0009.14,0015.37,0008.44
2022-06-03 12:29:00,,0825.2,5.00,0.00,29.1,28.1,00.0,38.0,31.0,23.9,0000.0,0009.16,0015.30,0008.45
2022-06-03 12:30:00,,0825.2,5.01,0.00,29.1,28.1,00.0,38.0,31.0,23.9,0000.0,0009.16,0014.51,0008.47
2022-06-03 12:31:00,,0825.2,5.00,0.00,29.1,28.1,00.0,38.0,31.0,23.9,0000.0,0009.13,0014.42,0008.46
2022-06-03 12:32:00,,0825.2,5.01,0.00,29.1,28.1,00.0,38.0,31.0,23.9,-000.8,0009.12,0014.47,0008.45
2022-06-03 12:33:00,,0825.1,5.01,0.00,29.1,28.1,00.0,38.0,31.0,23.9,-001.2,0009.13,0014.68,0008.45
2022-06-03 12:34:00,,0825.2,5.01,0.00,29.1,28.1,00.0,38.0,31.0,23.9,-000.7,0009.10,0015.06,0008.44
2022-06-03 12:35:00,,0825.2,5.00,0.00,29.1,28.1,00.0,38.0,31.0,23.8,-000.8,0009.08,0015.77,0008.45
2022-06-03 12:36:00,,0825.2,5.01,0.00,29.1,28.1,00.0,38.1,31.0,23.9,-000.7,0009.10,0016.10,0008.44
2022-06-03 12:37:00,,0825.2,5.00,0.00,29.1,28.1,00.0,38.1,31.0,24.3,-000.5,0009.03,0016.03,0008.37
2022-06-03 12:38:00,,0825.2,5.00,0.00,29.1,28.1,00.0,38.1,31.0,24.2,-000.6,0008.93,0014.94,0008.31
2022-06-03 12:39:00,,0825.2,4.98,0.00,29.1,28.1,00.0,38.1,31.0,23.9,-000.7,0008.90,0014.78,0008.29
2022-06-03 12:40:00,,0825.2,5.01,0.00,29.1,28.1,00.0,38.1,31.0,24.0,-000.8,0008.86,0015.21,0008.26
2022-06-03 12:41:00,,0825.2,4.99,0.00,29.1,28.1,00.0,38.1,31.0,24.1,-000.1,0008.80,0015.23,0008.21
2022-06-03 12:42:00,,0825.2,5.00,0.00,29.2,28.1,00.0,38.1,31.0,24.1,-000.8,0008.76,0015.27,0008.17
2022-06-03 12:43:00,,0825.2,5.00,0.00,29.2,28.1,00.0,38.1,31.0,24.1,-000.1,0008.74,0015.26,0008.16
2022-06-03 12:44:00,,0825.2,5.00,0.00,29.2,28.1,00.0,38.1,31.0,24.3,0000.1,0008.78,0015.19,0008.18
2022-06-03 12:45:00,,0825.2,5.01,0.00,29.2,28.1,00.0,38.1,31.0,24.4,-000.4,0008.83,0014.87,0008.22
2022-06-03 12:46:00,,0825.2,5.01,0.00,29.2,28.2,00.0,38.1,31.0,24.5,-000.5,0008.87,0014.12,0008.24
2022-06-03 12:47:00,,0825.1,5.00,0.00,29.2,28.2,00.0,38.1,31.1,24.4,-000.9,0008.88,0014.10,0008.24
2022-06-03 12:48:00,,0825.2,4.98,0.00,29.2,28.2,00.0,38.1,31.1,24.6,-001.1,0008.94,0014.56,0008.28
2022-06-03 12:49:00,,0825.2,5.01,0.00,29.2,28.2,00.0,38.1,31.1,24.6,-001.3,0009.02,0014.64,0008.33
2022-06-03 12:50:00,,0825.1,5.01,0.00,29.2,28.2,00.0,38.1,31.1,24.9,-001.3,0008.98,0013.97,0008.34
2022-06-03 12:51:00,,0825.1,5.00,0.00,29.2,28.2,00.0,38.1,31.1,24.6,-001.1,0008.99,0014.46,0008.37
2022-06-03 12:52:00,,0825.2,4.99,0.00,29.2,28.2,00.0,38.1,31.1,24.7,-000.7,0009.05,0014.48,0008.41
2022-06-03 12:53:00,,0825.2,5.00,0.00,29.2,28.2,00.0,38.1,31.1,24.6,-000.9,0009.11,0015.13,0008.43
2022-06-03 12:54:00,,0825.2,5.01,0.00,29.2,28.2,00.0,38.1,31.1,25.0,-000.8,0009.14,0015.32,0008.44
2022-06-03 12:55:00,,0825.2,5.00,0.00,29.2,28.2,00.0,38.1,31.1,24.6,-000.0,0009.11,0015.45,0008.42
2022-06-03 12:56:00,,0825.1,4.99,0.00,29.2,28.2,00.0,38.1,31.1,24.9,0000.0,0009.04,0015.23,0008.40
2022-06-03 12:57:00,,0825.1,5.02,0.00,29.2,28.2,00.0,38.1,31.1,25.1,0000.0,0009.02,0015.28,0008.40
2022-06-03 12:58:00,,0825.1,5.00,0.00,29.2,28.2,00.0,38.1,31.1,25.3,-000.4,0009.00,0015.15,0008.40
2022-06-03 12:59:00,,0825.1,5.00,0.00,29.2,28.2,00.0,38.1,31.1,25.0,-000.7,0008.99,0014.72,0008.42
